Valentine, NE

4:11 AM CDT on September 23, 2017 (GMT -0500)
Miller Field

Weather History for KVTN - October, 2013

Change the Weather History Date:

Sunday, October 27, 2013

  Actual Average Record
Temperature  
Mean Temperature 51 °F 44 °F  
Max Temperature 72 °F 58 °F 85 °F (1983)
Min Temperature 30 °F 30 °F 1 °F (1925)
Degree Days  
Heating Degree Days 14 21  
Month to date heating degree days 471 430  
Since 1 July heating degree days 537 615  
Cooling Degree Days 0 0  
Month to date cooling degree days 0 1  
Year to date cooling degree days 964 818  
Growing Degree Days 1 (Base 50)    
Moisture  
Dew Point 31 °F    
Average Humidity 55    
Maximum Humidity 85    
Minimum Humidity 24    
Precipitation  
Precipitation 0.00 in 0.03 in 0.30 in (1926)
Month to date precipitation 3.19 1.13  
Year to date precipitation 22.38 18.88  
Snow  
Snow 0.00 in 0.00 in 3.40 in (1925)
Month to date snowfall 1.0 1.1  
Since 1 July snowfall 1.0 1.8  
Since 1 September snowfall 1.0 1.8  
Snow Depth 0.00 in    
Sea Level Pressure  
Sea Level Pressure 29.93 in    
Wind  
Wind Speed 10 mph (NW)    
Max Wind Speed 21 mph    
Max Gust Speed 26 mph    
Visibility 10 miles    
Events      
T = Trace of Precipitation, MM = Missing Value Source: NWS Daily Summary

Daily Weather History Graph

Daily Weather History Graph

Search for Another Location

Airport or City:

Trip Planner

Search our weather history database for the weather conditions in past years. The results will help you decide how hot, cold, wet, or windy it might be!

Date:

Astronomy

Oct. 27, 2013 Rise Set
Actual Time 8:10 AM CDT 6:40 PM CDT
Civil Twilight 7:41 AM CDT 7:10 PM CDT
Nautical Twilight 7:08 AM CDT 7:43 PM CDT
Astronomical Twilight 6:35 AM CDT 8:16 PM CDT
Moon 12:59 AM CDT (10/27) 2:59 PM CDT (10/27)
Length of Visible Light 11h 28m
Length of Day
10h 30m
Last Quarter, 43% of the Moon is Illuminated
Oct 27
Last Quarter
Nov 3
New
Nov 9
First Quarter
Nov 17
Full
Nov 25
Last Quarter

Hourly Weather History & Observations

Time (CDT) Temp. Windchill Dew Point Humidity Pressure Visibility Wind Dir Wind Speed Gust Speed Precip Events Conditions
12:52 AM 37.9 °F 32.7 °F 25.0 °F 60% 30.04 in 10.0 mi SSW 6.9 mph - N/A   Clear
1:52 AM 39.9 °F 35.8 °F 25.0 °F 55% 30.00 in 10.0 mi SSW 5.8 mph - N/A   Clear
2:52 AM 36.0 °F 32.1 °F 26.1 °F 67% 29.98 in 10.0 mi West 4.6 mph - N/A   Clear
3:52 AM 32.0 °F 24.8 °F 26.1 °F 79% 29.95 in 10.0 mi WSW 8.1 mph - N/A   Clear
4:52 AM 34.0 °F 26.6 °F 27.0 °F 75% 29.93 in 10.0 mi WSW 9.2 mph - N/A   Clear
5:52 AM 34.0 °F 28.0 °F 28.0 °F 79% 29.92 in 10.0 mi SW 6.9 mph - N/A   Clear
6:52 AM 30.0 °F 24.1 °F 27.0 °F 88% 29.92 in 10.0 mi WSW 5.8 mph - N/A   Clear
7:52 AM 33.1 °F 26.9 °F 28.9 °F 85% 29.92 in 10.0 mi WSW 6.9 mph - N/A   Clear
8:52 AM 35.1 °F 30.1 °F 30.9 °F 85% 29.92 in 10.0 mi WSW 5.8 mph - N/A   Clear
9:52 AM 46.0 °F 41.9 °F 35.1 °F 66% 29.91 in 10.0 mi West 8.1 mph - N/A   Clear
10:52 AM 54.0 °F - 37.0 °F 53% 29.90 in 10.0 mi Calm Calm - N/A   Clear
11:52 AM 62.1 °F - 37.9 °F 41% 29.88 in 10.0 mi SSW 8.1 mph - N/A   Clear
12:52 PM 66.9 °F - 35.1 °F 31% 29.85 in 10.0 mi Calm Calm - N/A   Clear
1:52 PM 70.0 °F - 34.0 °F 27% 29.82 in 10.0 mi Calm Calm - N/A   Clear
2:52 PM 72.0 °F - 34.0 °F 25% 29.81 in 10.0 mi NE 3.5 mph - N/A   Clear
3:52 PM 72.0 °F - 32.0 °F 23% 29.81 in 10.0 mi NE 6.9 mph - N/A   Clear
4:52 PM 69.1 °F - 35.1 °F 29% 29.83 in 10.0 mi ENE 13.8 mph - N/A   Clear
5:52 PM 64.9 °F - 34.0 °F 32% 29.85 in 10.0 mi NE 16.1 mph - N/A   Clear
6:52 PM 57.9 °F - 33.1 °F 39% 29.89 in 10.0 mi NE 15.0 mph - N/A   Clear
7:52 PM 53.1 °F - 36.0 °F 52% 29.94 in 10.0 mi NE 19.6 mph 25.3 mph N/A   Clear
8:52 PM 48.0 °F - 35.1 °F 61% 29.99 in 10.0 mi ENE 18.4 mph 25.3 mph N/A   Clear
9:52 PM 44.1 °F 36.5 °F 34.0 °F 68% 30.02 in 10.0 mi NE 17.3 mph 25.3 mph N/A   Clear
10:52 PM 42.1 °F 34.5 °F 33.1 °F 70% 30.06 in 10.0 mi ENE 15.0 mph 23.0 mph N/A   Mostly Cloudy
11:52 PM 39.0 °F 30.3 °F 32.0 °F 76% 30.07 in 10.0 mi NE 16.1 mph 23.0 mph N/A   Partly Cloudy